Retour au catalogue

SL-14 DEB

ActifPO
NORAD 45269·DEBRIS·🇷🇺 Russia

Lancé Aug 15, 1991 depuis Plesetsk Cosmodrome

Loading…

Prochains Passages (prochaines 24 heures)

TLE

FraisSource: Space-Track

Époque: Sep 14, 2026, 04:43 UTC

1 45269U 91056F   26257.19697552  .00000045  00000-0  79487-4 0  9991
2 45269  82.5712  70.5050 0026566 197.9945 162.0242 13.20606045317453

Suivez SL-14 DEB en temps réel avec AllMySat

Download on the App Store